STARLINK-6082 (56110 NORAD) Tracking and Keplerian Element Data

This shows tracking and keplerian element data for the satellite.

Feedback or suggestion? Click here.




ElementValue
Catalog56110
NameSTARLINK-6082
Epoch Orbit652
Epoch Day127.25001157
Epoch Year2023
RAAN37.7608
Inclination43.0007
Eccentricity0.0001472
Argument of Perigee272.0194
Mean Anonmoly125.396
Mean Motion15.29689031
Decay Rate-0.00899836
L11 56110U 23046T 23127.25001157 -.00899836 00000+0 -33413-1 0 9993
L22 56110 43.0007 37.7608 0001472 272.0194 125.3960 15.29689031 6522



Live tracking and technical data element details for STARLINK-6082 (NORAD 56110). STARLINK-6082 can be tracked NOW for your location showing map with azimuth and elevation plus other details from your city location.







IsCatalogInMostPopularTable: catalog: 56110, numindb: 1
Update: records affected: 1



GetName: 56110 STARLINK-6082

Hit Count: updated at: Sun, 04 Jun 2023 23:51:24 GMT